When you browse on this site, cookies collect data to enhance your experience and personalize the content and advertising you see.
Visit our Privacy Policy to learn more. By continuing to use the site, you agree to this use of cookies and data.
  • în România
  • Lista ţărilor
  • Pe 7 zile
  • Temperatura apei
  • Hartă satelitară
  • Meteo pe hartă
  • Widget-uri
  • user-avatar
    Intrare

    Meteo pe oră la Krasnoe Znamya

    Astăzi, 17 Iulie, Miercuri

    Timp Temperatura Precipitaţii Vânt Presiune Umiditate
    00:00 +16°C° 0.1 mm 3 m/s 746 mmHg 94%
    01:00 +16°C° 0.3 mm 3 m/s 745 mmHg 95%
    02:00 +16°C° 0.3 mm 3 m/s 745 mmHg 96%
    03:00 +16°C° 0 mm 3 m/s 745 mmHg 97%
    04:00 +16°C° 0.1 mm 3 m/s 744 mmHg 96%
    05:00 +17°C° 0.1 mm 3 m/s 744 mmHg 96%
    06:00 +17°C° 0.1 mm 3 m/s 744 mmHg 95%
    07:00 +17°C° 0.6 mm 3 m/s 743 mmHg 95%
    08:00 +18°C° 0.6 mm 3 m/s 743 mmHg 94%
    09:00 +17°C° 0 mm 3 m/s 742 mmHg 95%
    10:00 +18°C° 0.4 mm 2 m/s 742 mmHg 92%
    11:00 +19°C° 0.4 mm 2 m/s 742 mmHg 89%
    12:00 +21°C° 0.4 mm 1 m/s 742 mmHg 86%
    13:00 +21°C° 0.6 mm 2 m/s 742 mmHg 82%
    14:00 +23°C° 0.6 mm 2 m/s 741 mmHg 79%
    15:00 +24°C° 0.6 mm 3 m/s 741 mmHg 75%
    16:00 +22°C° 0.7 mm 3 m/s 741 mmHg 76%
    17:00 +22°C° 0.7 mm 3 m/s 741 mmHg 77%
    18:00 +22°C° 0.7 mm 3 m/s 741 mmHg 77%
    19:00 +21°C° 0 mm 3 m/s 741 mmHg 82%
    20:00 +19°C° 0 mm 3 m/s 742 mmHg 88%
    21:00 +18°C° 0 mm 2 m/s 742 mmHg 93%
    22:00 +17°C° 0 mm 2 m/s 742 mmHg 93%
    23:00 +17°C° 0 mm 2 m/s 742 mmHg 94%

    Mâine, 18 Iulie, Joi

    Timp Temperatura Precipitaţii Vânt Presiune Umiditate
    00:00 +16°C° 0 mm 2 m/s 742 mmHg 94%
    01:00 +16°C° 0 mm 2 m/s 742 mmHg 94%
    02:00 +16°C° 0 mm 2 m/s 743 mmHg 94%
    03:00 +16°C° 0 mm 2 m/s 743 mmHg 94%
    04:00 +16°C° 0 mm 2 m/s 743 mmHg 93%
    05:00 +17°C° 0 mm 2 m/s 743 mmHg 92%
    06:00 +17°C° 0 mm 2 m/s 743 mmHg 91%
    07:00 +19°C° 0 mm 2 m/s 743 mmHg 84%
    08:00 +21°C° 0 mm 3 m/s 744 mmHg 78%
    09:00 +22°C° 0 mm 3 m/s 744 mmHg 72%
    10:00 +24°C° 0 mm 3 m/s 744 mmHg 66%
    11:00 +25°C° 0 mm 4 m/s 744 mmHg 59%
    12:00 +26°C° 0 mm 4 m/s 744 mmHg 53%
    13:00 +27°C° 0 mm 4 m/s 744 mmHg 53%
    14:00 +27°C° 0 mm 4 m/s 744 mmHg 53%
    15:00 +27°C° 0 mm 4 m/s 744 mmHg 53%
    16:00 +26°C° 0 mm 4 m/s 745 mmHg 56%
    17:00 +26°C° 0 mm 3 m/s 745 mmHg 60%
    18:00 +25°C° 0 mm 3 m/s 745 mmHg 63%
    19:00 +22°C° 0 mm 3 m/s 745 mmHg 68%
    20:00 +21°C° 0 mm 2 m/s 745 mmHg 73%
    21:00 +19°C° 0 mm 2 m/s 746 mmHg 77%
    22:00 +18°C° 0 mm 2 m/s 746 mmHg 80%
    23:00 +17°C° 0 mm 2 m/s 746 mmHg 82%

    Poimâine, 19 Iulie, Vineri

    Timp Temperatura Precipitaţii Vânt Presiune Umiditate
    00:00 +18°C° 0 mm 1 m/s 746 mmHg 84%
    01:00 +16°C° 0 mm 2 m/s 746 mmHg 86%
    02:00 +16°C° 0 mm 2 m/s 747 mmHg 89%
    03:00 +16°C° 0 mm 2 m/s 747 mmHg 91%
    04:00 +16°C° 0 mm 2 m/s 747 mmHg 89%
    05:00 +16°C° 0 mm 2 m/s 747 mmHg 87%
    06:00 +17°C° 0 mm 2 m/s 747 mmHg 86%
    07:00 +18°C° 0 mm 3 m/s 747 mmHg 78%
    08:00 +20°C° 0 mm 3 m/s 747 mmHg 71%
    09:00 +22°C° 0 mm 4 m/s 747 mmHg 64%
    10:00 +23°C° 0 mm 4 m/s 748 mmHg 60%
    11:00 +23°C° 0 mm 4 m/s 748 mmHg 57%
    12:00 +25°C° 0 mm 5 m/s 748 mmHg 53%
    13:00 +26°C° 0 mm 5 m/s 748 mmHg 53%
    14:00 +26°C° 0 mm 5 m/s 748 mmHg 53%
    15:00 +26°C° 0 mm 5 m/s 748 mmHg 52%
    16:00 +26°C° 0 mm 4 m/s 748 mmHg 55%
    17:00 +25°C° 0 mm 4 m/s 748 mmHg 58%
    18:00 +25°C° 0 mm 3 m/s 748 mmHg 61%
    19:00 +22°C° 0 mm 3 m/s 748 mmHg 67%
    20:00 +21°C° 0 mm 3 m/s 748 mmHg 72%
    21:00 +19°C° 0 mm 3 m/s 749 mmHg 77%
    22:00 +18°C° 0 mm 3 m/s 749 mmHg 80%
    23:00 +18°C° 0 mm 2 m/s 749 mmHg 84%

    20 Iulie, Sâmbătă

    Timp Temperatura Precipitaţii Vânt Presiune Umiditate
    00:00 +17°C° 0 mm 2 m/s 749 mmHg 87%
    01:00 +17°C° 0 mm 2 m/s 749 mmHg 90%
    02:00 +16°C° 0 mm 2 m/s 749 mmHg 92%
    03:00 +16°C° 0 mm 2 m/s 749 mmHg 95%
    04:00 +16°C° 0 mm 2 m/s 750 mmHg 93%
    05:00 +16°C° 0 mm 2 m/s 750 mmHg 91%
    06:00 +17°C° 0 mm 2 m/s 750 mmHg 89%
    07:00 +19°C° 0 mm 3 m/s 750 mmHg 81%
    08:00 +20°C° 0 mm 3 m/s 750 mmHg 74%
    09:00 +22°C° 0 mm 4 m/s 750 mmHg 66%
    10:00 +23°C° 0 mm 4 m/s 751 mmHg 61%
    11:00 +25°C° 0 mm 5 m/s 751 mmHg 57%
    12:00 +26°C° 0 mm 5 m/s 751 mmHg 53%
    13:00 +26°C° 0 mm 5 m/s 751 mmHg 52%
    14:00 +26°C° 0 mm 5 m/s 751 mmHg 50%
    15:00 +27°C° 0 mm 5 m/s 751 mmHg 49%
    16:00 +26°C° 0 mm 5 m/s 751 mmHg 53%
    17:00 +26°C° 0 mm 4 m/s 751 mmHg 57%
    18:00 +25°C° 0 mm 4 m/s 751 mmHg 61%
    19:00 +23°C° 0 mm 4 m/s 751 mmHg 67%
    20:00 +21°C° 0 mm 3 m/s 751 mmHg 73%
    21:00 +19°C° 0 mm 3 m/s 751 mmHg 78%
    22:00 +18°C° 0 mm 3 m/s 751 mmHg 81%
    23:00 +18°C° 0 mm 3 m/s 751 mmHg 84%

    21 Iulie, Duminică

    Timp Temperatura Precipitaţii Vânt Presiune Umiditate
    00:00 +17°C° 0 mm 3 m/s 752 mmHg 87%
    01:00 +17°C° 0 mm 3 m/s 751 mmHg 88%
    02:00 +16°C° 0 mm 3 m/s 751 mmHg 90%
    03:00 +16°C° 0 mm 3 m/s 751 mmHg 91%
    04:00 +16°C° 0 mm 3 m/s 751 mmHg 89%
    05:00 +17°C° 0 mm 3 m/s 751 mmHg 87%
    06:00 +17°C° 0 mm 3 m/s 752 mmHg 85%
    07:00 +19°C° 0 mm 3 m/s 752 mmHg 78%
    08:00 +21°C° 0 mm 4 m/s 752 mmHg 71%
    09:00 +22°C° 0 mm 4 m/s 752 mmHg 63%
    10:00 +23°C° 0 mm 4 m/s 752 mmHg 60%
    11:00 +25°C° 0 mm 4 m/s 752 mmHg 56%
    12:00 +26°C° 0 mm 5 m/s 752 mmHg 53%
    13:00 +26°C° 0 mm 5 m/s 751 mmHg 52%
    14:00 +26°C° 0 mm 5 m/s 751 mmHg 52%
    15:00 +27°C° 0 mm 5 m/s 751 mmHg 51%
    16:00 +26°C° 0 mm 5 m/s 751 mmHg 55%
    17:00 +26°C° 0 mm 4 m/s 751 mmHg 59%
    18:00 +25°C° 0 mm 4 m/s 751 mmHg 63%
    19:00 +22°C° 0 mm 3 m/s 751 mmHg 69%
    20:00 +21°C° 0 mm 3 m/s 751 mmHg 75%
    21:00 +19°C° 0 mm 2 m/s 751 mmHg 82%
    22:00 +19°C° 0 mm 2 m/s 751 mmHg 83%
    23:00 +18°C° 0 mm 2 m/s 750 mmHg 84%

    22 Iulie, Luni

    Timp Temperatura Precipitaţii Vânt Presiune Umiditate
    00:00 +18°C° 0 mm 2 m/s 750 mmHg 85%
    01:00 +17°C° 0 mm 2 m/s 750 mmHg 87%
    02:00 +17°C° 0 mm 2 m/s 750 mmHg 90%
    03:00 +16°C° 0 mm 3 m/s 750 mmHg 93%
    04:00 +17°C° 0 mm 3 m/s 750 mmHg 91%
    05:00 +17°C° 0 mm 3 m/s 750 mmHg 90%
    06:00 +17°C° 0 mm 3 m/s 750 mmHg 89%
    07:00 +19°C° 0 mm 3 m/s 750 mmHg 82%
    08:00 +20°C° 0 mm 3 m/s 750 mmHg 75%
    09:00 +22°C° 0 mm 3 m/s 750 mmHg 69%
    10:00 +24°C° 0.3 mm 3 m/s 750 mmHg 66%
    11:00 +23°C° 0.3 mm 4 m/s 750 mmHg 63%
    12:00 +25°C° 0.3 mm 4 m/s 750 mmHg 60%
    13:00 +25°C° 0.1 mm 4 m/s 750 mmHg 57%
    14:00 +26°C° 0.1 mm 4 m/s 749 mmHg 54%
    15:00 +26°C° 0.1 mm 5 m/s 749 mmHg 52%
    16:00 +26°C° 0 mm 4 m/s 749 mmHg 54%
    17:00 +25°C° 0 mm 4 m/s 749 mmHg 56%
    18:00 +25°C° 0 mm 4 m/s 749 mmHg 58%
    19:00 +22°C° 0 mm 3 m/s 749 mmHg 64%
    20:00 +20°C° 0 mm 3 m/s 749 mmHg 70%
    21:00 +18°C° 0 mm 2 m/s 749 mmHg 76%
    22:00 +18°C° 0 mm 2 m/s 749 mmHg 80%
    23:00 +17°C° 0 mm 2 m/s 749 mmHg 83%
    Arată mai mult